Location: Ellerstadt
(49.4644°N, 8.2615°E)
Time: 21:15:13
(UTC+00:00)

deb Explorer IX - All Passes

Search period start: 13 June 2021 00:00
Search period end: 23 June 2021 00:00
Orbit: 542 x 1097 km, 38.8° (Epoch: 12 June)

Date Brightness Start Highest point End Pass type
(mag) Time Alt. Az. Time Alt. Az. Time Alt. Az.
13 Jun - 08:10:13 10° S 08:11:49 12° SSE 08:13:29 10° SE daylight
13 Jun - 09:53:55 10° SW 09:57:29 22° S 10:01:27 10° ESE daylight
13 Jun - 11:39:40 10° WSW 11:43:29 22° S 11:47:43 10° SE daylight
13 Jun - 13:27:16 10° SW 13:29:25 12° SSW 13:31:40 10° S daylight
14 Jun - 07:46:40 10° S 07:48:01 11° SSE 07:49:25 10° SE daylight
14 Jun - 09:30:16 10° SW 09:33:41 22° S 09:37:26 10° ESE daylight
14 Jun - 11:16:01 10° WSW 11:19:38 21° S 11:23:39 10° SE daylight
14 Jun - 13:03:47 10° SW 13:05:33 12° SSW 13:07:23 10° S daylight
15 Jun - 07:23:07 10° S 07:24:13 11° SSE 07:25:21 10° SE daylight
15 Jun - 09:06:36 10° SW 09:09:52 21° S 09:13:26 10° ESE daylight
15 Jun - 10:52:21 10° WSW 10:55:47 20° S 10:59:35 10° SE daylight
15 Jun - 12:40:23 10° SW 12:41:40 11° SSW 12:43:00 10° S daylight
16 Jun - 06:59:34 10° SSE 07:00:26 11° SSE 07:01:17 10° SE daylight
16 Jun - 08:42:55 10° SW 08:46:04 20° S 08:49:28 10° SE daylight
16 Jun - 10:28:42 10° SW 10:31:58 20° S 10:35:33 10° SE daylight
16 Jun - 12:17:20 10° SSW 12:17:49 10° SSW 12:18:18 10° SSW daylight
17 Jun - 06:36:01 10° SSE 06:36:37 10° SSE 06:37:14 10° SSE daylight
17 Jun - 08:19:14 10° SW 08:22:16 20° S 08:25:31 10° SE daylight
17 Jun - 10:05:02 10° SW 10:08:09 19° S 10:11:31 10° SE daylight
18 Jun - 06:12:27 10° SSE 06:12:49 10° SSE 06:13:12 10° SSE daylight
18 Jun - 07:55:31 10° SW 07:58:29 19° S 08:01:35 10° SE daylight
18 Jun - 09:41:22 10° SW 09:44:20 18° S 09:47:30 10° SSE daylight
19 Jun - 05:48:48 10° SSE 05:49:00 10° SSE 05:49:13 10° SSE daylight
19 Jun - 07:31:48 10° SW 07:34:41 19° S 07:37:41 10° SE daylight
19 Jun - 09:17:41 10° SW 09:20:31 17° S 09:23:31 10° SSE daylight
20 Jun - 05:24:55 10° SSE 05:25:12 10° SSE 05:25:31 10° SSE daylight
20 Jun - 07:08:02 10° SW 07:10:54 18° S 07:13:48 10° SE daylight
20 Jun - 08:54:00 10° SW 08:56:42 17° S 08:59:33 10° SSE daylight
21 Jun - 05:00:52 10° SSE 05:01:24 10° SSE 05:01:55 10° SSE daylight
21 Jun - 06:44:16 10° SW 06:47:05 18° S 06:49:57 10° SE daylight
21 Jun - 08:30:17 10° SW 08:32:54 16° S 08:35:37 10° SSE daylight
22 Jun - 04:36:48 10° S 04:37:34 10° SSE 04:38:20 10° SSE daylight
22 Jun - 06:20:27 10° SW 06:23:17 18° S 06:26:07 10° SE daylight
22 Jun - 08:06:33 10° SW 08:09:05 16° SSW 08:11:42 10° SSE daylight
